Temp_Advection
nan nan nan nan nan nan nan nan nan nan nan nan nan nan nan nan nan nan nan nan nan nan nan nan nan nan nan nan nan nan nan nan nan nan nan nan nan nan nan nan nan nan nan nan nan nan nan nan nan nan nan nan nan nan
nan -0 -0 -0 -0 -0 -0 -0 -0 -0 -0 -0 -0 -0 0 1 1 0 0 1 3 1 -1 -0 -1 0 0 0 1 -1 -0 -1 -1 -1 0 0 0 0 -0 -0 -0 -0 -1 -0 -1 -2 0 -3 -8 1 3 2 2 nan
nan -0 -0 -0 -0 -0 -0 -0 -0 -0 -0 -0 -0 -0 -0 0 0 1 0 1 3 1 -1 -2 -2 0 1 1 1 0 0 -0 0 0 0 0 0 -0 -0 1 -0 -0 0 0 0 -2 2 -4 0 2 1 0 3 nan
nan -0 -0 -0 -0 -0 -0 -0 -0 0 -0 -0 0 0 -1 -1 -0 0 0 0 1 1 0 -1 -1 0 1 1 1 1 0 1 1 0 1 0 -0 -1 0 0 0 -0 -0 -0 -2 -3 -2 -2 -0 0 0 1 3 nan
nan -0 -0 -0 -0 -0 -0 -0 -0 -0 0 -0 0 0 -0 -1 -0 -0 -0 0 0 1 0 -0 0 -0 -0 0 1 2 2 1 1 1 1 -0 -0 0 1 -0 -1 -3 -2 -1 -2 -1 1 2 1 -0 -1 -1 1 nan
nan 0 -0 -0 0 -0 -0 -0 -0 -1 -0 0 -0 -0 0 -0 -0 0 0 -1 -0 1 1 0 0 0 0 1 2 1 1 0 0 0 0 -0 0 0 0 -1 -1 -3 2 2 -2 -2 -0 -0 2 3 1 -0 1 nan
nan 1 0 -0 -0 -0 -0 -0 -0 -1 -1 -0 -0 -0 -0 0 0 -0 -0 -0 0 1 0 1 0 0 0 1 1 1 1 0 0 0 0 0 0 1 -0 -3 -3 -1 0 2 2 1 -1 -1 0 0 1 1 1 nan
nan 0 0 1 0 -0 -0 -0 -0 -0 -0 -1 -1 -1 0 0 1 0 -0 -0 0 0 0 0 0 -0 0 0 0 0 0 1 0 0 0 0 0 0 -1 -5 -8 1 1 -1 1 1 0 -1 1 2 1 1 1 nan
nan -0 0 0 0 0 0 -0 -0 -0 -0 -0 -0 -0 -0 0 0 -0 0 -0 0 1 0 0 -0 0 -0 0 0 0 0 0 0 0 0 0 0 -1 -2 -6 -8 -0 3 -2 -3 3 2 -1 -2 2 3 1 0 nan
nan -0 0 0 0 0 0 0 -0 -0 0 -0 -0 -0 0 0 0 0 0 0 0 1 1 -0 0 0 -0 -0 0 -0 -0 0 -0 -0 0 0 -1 -6 -8 -4 -1 1 2 3 2 -0 1 2 -1 -1 1 1 0 nan
nan -0 -0 0 0 0 0 0 0 0 -0 -0 -0 0 0 0 0 0 0 0 0 0 0 -0 0 -0 1 -0 -0 -0 0 -0 0 0 0 -0 -0 -3 -3 -0 0 0 1 1 1 1 2 2 0 -0 1 1 0 nan
nan -0 -0 0 0 -0 -0 -0 0 0 0 0 0 0 0 0 0 0 0 0 0 -0 0 0 0 0 0 -0 -0 1 0 -0 -0 -0 0 -0 -1 -2 -0 -0 0 0 0 1 1 1 0 1 1 -0 0 1 0 nan
nan -0 -0 -0 -0 -0 -0 0 0 0 0 0 0 0 0 0 0 0 1 0 -0 -0 0 -0 0 0 0 0 -0 -0 0 0 -0 -0 -0 -1 -5 -1 0 -0 -1 -1 -1 -2 -1 0 1 0 -0 -0 0 -0 0 nan
nan 0 0 -0 0 -0 -0 0 0 1 0 -0 0 0 0 -0 -0 0 -0 -0 -1 0 -0 -1 -0 0 0 0 0 -0 0 -0 -0 -0 -0 -1 -5 -0 -0 -1 -1 -1 -1 -1 -1 -1 1 1 -0 -0 0 0 0 nan
nan 0 -0 0 0 -0 -0 0 0 1 -0 0 0 0 -0 -1 -0 -0 -1 -1 0 -0 -0 -0 -0 0 0 -0 -0 -0 0 0 -0 -0 -1 -2 -0 -0 -1 -1 -1 -1 -1 -1 -1 -1 0 0 0 0 0 1 1 nan
nan -0 -1 0 -0 -0 -0 1 0 1 0 0 0 0 -0 -0 -0 -1 -1 -1 0 0 0 0 -0 0 0 0 0 1 0 -0 -0 -1 -5 0 0 1 0 -0 -1 -1 -0 -0 0 -0 0 0 0 0 1 1 0 nan
nan -1 -0 0 0 0 1 1 0 -0 0 -0 -0 -1 -1 -2 -2 -1 -1 0 0 -0 0 0 -0 0 0 -0 0 -0 -1 -2 -7 -1 1 -0 -0 0 0 -0 -0 -0 -0 0 1 1 0 0 0 0 1 0 0 nan
nan -1 -0 1 1 1 0 -0 -0 0 0 -0 -0 -1 -0 -1 -1 -0 0 1 -0 -0 -1 -0 -0 0 -0 -0 0 -0 -4 -3 1 -1 -2 -2 -1 -0 -1 -1 -1 -0 -0 0 1 1 0 0 0 0 0 0 0 nan
nan 0 0 1 0 -1 -0 0 0 0 0 -1 -1 0 0 -0 -0 -0 -0 0 1 1 1 0 0 -0 -0 -1 -2 -3 0 0 -1 -1 -1 -1 -1 0 -0 -1 -0 0 1 1 1 1 0 1 0 -0 -0 0 0 nan
nan 0 0 0 -0 -0 0 0 0 0 -0 -0 -0 0 1 -0 -0 1 1 2 4 1 0 -0 -1 -2 -1 -1 0 0 0 1 1 0 -2 -2 0 -0 -0 -0 -0 0 1 1 1 1 0 0 -1 -1 -0 0 0 nan
nan -0 0 0 -1 1 1 0 0 0 0 1 1 2 1 1 1 1 2 3 1 -1 -1 -2 -1 -1 0 1 0 0 1 1 1 1 0 -2 -2 -1 -1 -0 -0 0 1 1 1 2 -0 -2 -1 -0 0 0 1 nan
nan -0 0 1 2 1 2 1 0 1 1 1 2 2 1 1 0 1 1 0 -1 -3 -1 -1 0 1 1 1 1 1 0 -0 -0 0 -0 -1 -1 -1 -1 0 0 -1 -0 1 2 1 -1 -1 -0 0 -0 0 1 nan
nan 1 1 1 0 0 0 2 0 1 -0 1 1 0 0 -0 0 1 0 -1 -2 -0 0 1 2 2 2 1 1 1 -0 -1 -2 -1 -0 -1 -1 -0 -1 -1 -0 -0 -1 0 1 0 -1 -0 0 -0 0 1 0 nan
nan 1 -0 0 -1 -0 1 0 1 0 -1 -0 0 -0 -0 -0 1 0 0 -1 -1 1 2 3 1 -1 -0 -0 -1 -1 1 0 -1 -2 -1 -1 -1 -0 -0 -1 -1 -0 0 -0 -0 -0 -0 0 0 -0 0 -0 0 nan
nan -0 -0 -0 0 -1 -0 -0 0 0 0 0 0 0 -0 0 0 0 0 -0 1 1 -0 -1 -1 -1 -1 -2 -2 -1 -0 0 -1 -3 -1 -0 -1 -1 -1 -1 -1 -0 0 0 -0 -1 -1 0 -0 -0 -0 0 0 nan
nan -0 -0 -0 -0 -0 -0 -0 -0 -0 0 -0 -0 0 0 0 0 1 0 -0 -1 -1 -1 -1 -1 -2 -1 -1 -2 -2 -1 0 -0 -2 -2 0 0 -0 -1 -1 -1 -1 -1 0 0 -1 -1 -0 -1 -0 1 0 0 nan
nan 0 0 -0 -0 -1 -0 0 -0 -0 -0 -0 -0 0 0 -0 1 0 0 -0 -0 -1 -0 -0 -0 -1 -2 -1 -1 -1 -0 0 0 -1 -2 -1 -0 0 0 -0 -1 -1 -0 -0 -0 -1 -1 -1 -1 0 1 -1 0 nan
nan -0 0 1 0 -0 -1 -0 0 -0 -0 -0 -1 -0 0 1 0 -0 -0 -0 -0 -0 -0 0 0 -0 -0 -0 -1 -1 -1 -0 -0 -1 -1 -1 -0 -0 -0 -0 -0 0 -0 -0 -0 -0 -1 -1 -1 0 0 1 0 nan
nan -0 0 -0 0 0 0 0 -0 0 0 0 0 0 0 0 -0 0 -0 -0 -0 -0 -0 -0 -0 -0 -0 -0 0 0 -0 -0 -1 -1 -2 -2 -1 -0 0 -0 -0 -0 -0 -0 -0 -0 -1 -1 1 1 1 1 1 nan
nan -0 -0 0 0 0 -0 0 0 0 0 0 -0 -0 -0 -0 0 0 -0 -0 -0 -0 -0 -0 -1 -1 -1 -1 -0 0 0 0 0 0 -0 -2 -2 -1 -0 -0 -0 0 -0 -0 0 0 -0 -0 0 0 0 0 0 nan
nan -0 -0 -0 -0 -0 -0 0 0 0 0 0 0 -0 -0 -0 0 -0 -0 -0 -0 -0 -0 -0 -0 -0 -0 -1 -1 -1 -1 -1 0 1 1 0 -0 -1 -0 -0 -0 -0 -0 -0 0 -0 -0 -1 -0 -1 -0 0 0 nan
nan -0 -0 0 0 -0 0 0 0 -0 -0 -0 -0 -0 -0 -0 -0 -0 -0 -0 -0 -0 -0 -0 -0 -0 -0 -0 -0 -0 -1 -1 -0 -0 0 -0 -0 -0 -0 -0 -0 -0 -0 0 0 -0 -0 0 0 0 1 1 0 nan
nan nan nan nan nan nan nan nan nan nan nan nan nan nan nan nan nan nan nan nan nan nan nan nan nan nan nan nan nan nan nan nan nan nan nan nan nan nan nan nan nan nan nan nan nan nan nan nan nan nan nan nan nan nan
Wind_Speed
16 17 18 18 19 19 20 21 21 21 21 20 20 21 25 26 24 22 32 29 24 12 23 23 19 18 10 6 3 8 3 2 2 0 3 4 3 4 1 6 7 8 8 6 4 5 11 16 12 9 9 10 11 14
13 14 17 20 22 22 21 19 20 21 22 22 22 20 19 22 23 19 28 29 29 23 13 13 20 24 29 28 18 11 4 6 11 2 2 1 4 1 4 10 0 3 8 5 14 10 8 24 30 33 32 30 33 28
11 12 13 15 15 17 20 23 23 21 21 21 20 19 18 16 21 21 23 26 30 23 28 32 32 35 34 32 26 13 13 16 13 15 5 4 7 4 4 7 3 5 10 5 3 18 30 39 44 43 37 37 34 28
13 13 14 14 14 15 16 16 18 20 19 19 19 17 13 11 12 19 22 22 26 11 6 11 22 25 25 24 24 29 30 18 16 9 8 3 2 9 4 3 6 5 9 6 14 26 43 34 27 18 17 19 22 20
15 15 14 14 15 15 15 16 16 16 17 17 16 17 15 14 14 14 18 24 24 19 5 6 10 14 20 21 22 23 26 25 19 9 7 3 5 4 4 1 5 15 12 8 13 35 24 36 23 21 21 22 25 16
17 16 15 14 14 14 14 14 14 15 15 15 16 15 17 15 13 8 13 24 28 29 9 3 5 5 11 18 19 16 17 18 17 7 8 9 12 5 4 5 4 25 37 42 43 55 47 43 42 38 37 34 19 15
16 17 16 14 13 14 14 14 13 13 14 14 14 17 15 15 14 13 6 4 7 17 5 7 2 2 5 7 8 11 15 12 10 7 7 7 6 9 3 13 25 36 46 51 46 47 47 42 42 36 31 23 18 17
18 18 17 17 15 14 12 12 12 12 12 11 12 12 12 14 13 16 20 17 10 11 8 4 1 5 9 6 5 8 6 9 9 6 5 4 2 5 6 21 49 50 45 46 45 34 45 50 50 48 38 27 22 20
21 19 18 18 17 15 14 12 12 11 10 8 7 7 2 3 6 10 15 16 16 14 5 6 4 3 11 6 5 6 6 2 4 5 6 6 3 7 12 34 39 54 31 42 56 56 49 39 39 38 32 25 23 19
21 21 20 19 18 17 16 14 12 11 9 8 6 4 4 3 5 2 3 5 8 10 11 6 8 2 11 9 4 5 4 2 2 5 4 3 5 25 42 52 56 48 44 40 42 36 33 36 33 31 31 27 23 17
21 21 20 21 21 19 17 14 12 12 10 6 3 4 5 4 5 4 4 5 5 4 7 6 16 7 11 5 4 9 3 2 2 4 3 3 5 8 12 14 16 23 27 28 27 32 31 30 34 31 30 25 21 18
22 23 22 22 20 20 19 17 15 17 12 7 5 6 4 5 4 3 4 3 5 5 6 6 7 8 7 7 6 8 3 2 7 7 0 4 5 8 14 23 28 31 32 35 36 36 30 23 19 20 18 15 21 17
25 25 24 24 22 20 20 19 19 23 18 14 8 5 4 5 4 7 8 4 3 7 10 7 4 7 7 8 4 3 5 7 5 2 5 5 17 14 22 29 32 29 33 37 37 35 28 20 17 16 12 13 18 16
26 26 25 25 25 24 23 22 22 26 17 9 7 5 6 5 6 6 4 4 5 4 13 15 5 3 4 4 5 5 5 4 2 4 7 4 17 19 25 29 33 36 37 39 35 30 23 16 14 9 11 13 16 13
30 30 29 29 27 26 26 26 23 33 22 10 9 6 9 13 6 2 9 8 7 4 15 6 3 7 3 3 4 2 2 5 6 6 4 7 11 22 28 32 35 37 40 40 35 26 18 12 10 14 13 16 14 11
31 30 35 30 30 29 29 28 27 37 13 11 13 6 4 3 6 12 12 10 8 12 13 4 4 3 5 4 5 8 5 7 5 5 15 15 24 32 33 33 33 38 42 39 31 22 14 12 16 14 15 16 13 11
31 38 36 34 31 29 28 30 29 31 11 9 10 28 26 20 17 14 12 9 15 20 4 5 4 11 1 4 5 5 6 5 23 25 30 30 32 37 33 34 35 39 39 35 29 22 14 16 17 15 19 16 13 11
39 40 35 35 32 29 33 36 29 14 14 15 6 22 30 27 32 24 21 19 19 16 9 7 7 5 5 3 4 5 19 32 31 33 40 35 40 34 34 33 40 37 36 32 26 20 18 22 23 23 19 17 15 13
41 39 38 35 29 36 19 22 30 7 15 17 24 28 25 27 37 39 40 42 39 31 13 7 5 4 9 14 20 31 31 32 34 41 42 48 47 35 34 40 39 37 34 30 26 22 21 26 26 24 21 19 18 15
38 39 39 37 35 30 12 11 19 16 12 18 27 30 31 24 30 37 42 38 31 14 11 5 9 29 32 40 41 43 44 43 37 35 38 45 38 36 41 38 37 35 32 28 24 20 23 28 27 26 24 20 19 17
36 40 38 36 43 44 15 10 10 9 11 12 25 31 19 19 30 35 35 28 14 7 9 31 39 40 44 43 45 42 39 39 39 34 34 38 44 41 43 40 34 31 29 26 24 21 22 27 28 28 24 23 20 16
36 37 45 40 30 19 16 13 7 15 12 6 11 13 7 7 12 15 14 14 13 38 32 34 37 34 37 39 39 37 31 31 36 40 42 41 41 40 39 34 30 31 29 27 24 21 22 27 28 26 25 22 20 19
35 35 25 12 6 5 3 20 6 9 4 8 10 4 4 6 7 13 8 12 21 31 31 33 35 35 34 34 34 34 32 31 34 34 34 33 33 33 32 32 30 29 28 26 23 21 26 28 25 26 23 23 22 21
28 18 7 4 6 4 8 3 4 6 6 4 4 4 4 7 10 6 4 7 17 19 20 21 22 26 28 28 25 28 26 25 28 29 27 27 29 30 26 26 25 24 24 24 23 24 28 27 25 28 28 26 24 23
9 3 6 4 5 5 3 1 2 2 4 4 4 3 3 7 3 4 4 6 10 12 12 15 17 18 22 26 24 23 20 23 26 30 28 24 25 27 27 24 23 22 21 23 24 25 26 25 27 29 29 27 26 23
5 2 2 5 4 5 5 5 7 5 4 3 6 3 4 3 3 6 3 3 5 8 13 17 19 21 21 20 26 29 28 25 25 29 29 24 22 24 25 25 26 26 21 22 24 26 26 27 30 30 29 29 26 25
3 3 3 4 8 8 4 5 5 3 5 6 4 4 3 4 6 2 2 3 7 12 13 14 16 19 23 25 24 23 24 22 22 26 26 24 22 21 22 25 27 27 23 20 21 26 29 28 31 30 29 29 28 26
4 0 3 7 4 3 5 2 5 7 4 7 10 5 7 6 2 1 2 8 11 11 11 12 14 16 20 22 22 22 20 18 20 21 21 18 15 16 16 18 20 19 22 20 20 21 26 28 29 31 29 29 29 26
4 3 2 3 3 2 4 5 3 3 4 9 4 3 3 3 2 4 5 7 9 11 12 14 15 17 17 16 15 14 13 16 22 26 27 27 24 19 18 18 16 13 14 15 16 18 25 30 26 25 26 27 26 23
6 5 2 2 1 2 0 1 2 3 3 5 5 6 5 5 5 7 10 9 9 10 11 13 16 18 18 19 18 10 10 18 22 27 31 31 30 25 24 19 14 10 10 11 14 18 19 22 22 25 23 23 23 24
8 4 2 2 0 1 1 2 3 5 4 3 3 4 5 6 2 5 12 12 9 9 9 11 12 14 16 18 21 21 18 20 23 24 29 29 24 21 18 13 8 7 10 11 14 18 20 19 21 20 19 23 25 24
6 4 3 2 2 1 2 1 2 2 2 2 3 3 5 3 2 4 12 13 11 9 10 10 12 15 16 15 15 17 18 19 21 25 33 29 21 15 12 8 6 4 5 7 12 17 19 19 19 20 20 22 22 21
3 4 2 2 2 3 1 1 1 2 4 3 3 2 2 2 2 6 7 13 14 14 12 9 8 9 13 16 16 16 16 16 15 14 19 25 25 19 13 9 6 3 2 7 10 12 13 12 13 16 17 18 19 19
Wind_Direction
263 265 268 266 264 263 264 266 267 269 272 273 270 269 259 248 249 259 254 250 237 226 247 248 255 248 224 214 171 168 117 202 93 139 172 236 199 236 17 165 179 168 168 205 199 224 275 157 127 181 242 281 283 276
264 265 265 265 265 266 267 267 267 268 271 272 271 271 269 262 249 253 253 255 246 231 251 242 250 256 256 256 252 198 226 176 203 115 236 61 253 177 174 277 145 268 201 198 196 214 241 200 255 268 285 289 294 287
266 265 267 270 272 271 269 268 269 273 276 275 275 276 272 261 259 248 263 259 248 244 261 256 252 260 259 260 255 225 230 236 233 239 226 223 232 126 206 235 200 258 203 234 16 254 249 263 277 281 281 283 289 286
269 270 272 274 275 275 274 273 270 267 270 274 277 276 287 288 281 268 263 263 257 248 253 255 250 250 255 256 248 242 244 231 237 238 248 250 193 198 247 257 224 169 146 243 259 278 283 280 287 298 295 283 283 276
269 270 271 273 278 280 282 283 279 280 272 267 270 261 263 274 278 284 272 263 264 241 271 278 260 253 245 248 253 248 239 240 239 232 224 244 229 254 235 4 216 207 232 225 263 276 287 292 301 304 297 302 303 261
272 277 276 275 276 279 280 284 288 286 285 277 267 271 262 252 268 287 246 264 257 255 274 301 238 225 232 240 241 240 234 231 220 214 239 238 230 222 271 266 241 248 253 241 256 274 281 285 289 290 294 296 275 252
268 273 277 278 274 272 277 282 287 298 291 289 287 269 266 259 243 239 245 262 260 229 253 283 218 192 184 207 214 219 222 218 217 238 241 253 242 210 255 264 262 269 280 280 277 280 284 279 284 289 287 281 254 250
267 268 269 269 271 271 271 275 283 291 299 321 313 296 264 261 247 244 251 261 274 205 224 248 221 224 184 168 185 191 189 206 225 245 263 239 227 222 261 263 273 277 285 293 302 293 280 289 284 281 283 270 247 243
265 263 262 261 263 264 268 274 279 281 292 308 314 340 356 216 215 248 250 259 248 227 250 213 186 253 178 158 165 164 181 210 235 235 240 187 195 224 232 258 280 291 297 304 310 306 301 288 287 283 275 256 241 242
259 261 261 259 256 258 261 263 270 277 280 283 289 273 249 224 226 259 248 219 219 217 228 242 192 220 174 178 151 140 175 234 263 239 195 232 258 262 262 266 277 289 299 307 306 307 310 301 294 291 280 267 252 246
258 257 257 256 253 249 248 248 257 263 250 250 241 242 268 190 176 219 241 212 205 252 223 237 225 208 206 146 171 208 184 182 274 255 159 262 267 246 309 314 316 309 315 328 328 325 322 306 295 292 291 270 233 242
260 259 256 253 251 247 242 238 234 234 220 223 249 232 203 204 227 230 217 243 215 236 205 188 204 192 165 159 163 181 187 113 250 147 128 265 250 285 342 344 348 350 349 347 345 337 330 318 298 286 282 253 228 232
259 256 254 252 251 246 239 232 232 229 213 221 222 230 202 193 221 210 210 209 215 205 190 169 153 168 155 183 158 121 170 220 124 187 232 238 266 328 340 347 349 353 352 350 347 341 329 316 293 277 260 191 214 215
260 257 255 251 244 240 237 231 225 220 191 201 183 234 198 215 230 200 183 194 212 224 177 164 135 176 166 158 176 185 218 117 224 247 241 245 279 334 343 349 347 348 348 346 342 335 327 303 281 237 175 208 205 209
261 259 257 252 246 239 232 228 224 216 195 187 190 225 224 226 238 250 222 233 240 174 161 154 175 184 183 219 202 172 200 239 211 233 234 251 320 330 339 346 344 342 341 340 337 327 314 278 217 187 208 204 201 205
262 258 253 252 247 239 232 228 220 213 213 213 204 225 223 192 235 226 228 234 224 188 172 191 155 184 239 217 179 215 172 224 245 225 258 307 323 330 332 336 336 335 335 332 328 318 289 240 219 210 210 208 206 204
262 257 254 248 244 239 232 226 226 224 237 213 213 226 239 238 235 217 202 212 191 166 192 184 208 224 7 219 218 192 209 225 252 273 301 310 326 319 318 324 327 328 328 325 318 306 266 223 222 223 223 214 212 209
251 255 254 246 241 236 230 222 216 221 218 221 199 228 229 233 240 239 232 225 196 199 186 216 191 205 239 253 269 248 268 283 290 307 305 308 318 315 317 319 322 321 322 316 308 291 247 224 226 229 222 222 218 213
254 249 245 243 236 224 219 210 211 222 209 224 236 247 242 240 244 244 248 248 245 237 231 203 224 226 249 232 248 263 271 278 293 296 294 300 308 310 312 314 315 316 315 308 299 281 255 230 229 231 222 222 222 216
253 245 243 238 231 220 211 206 197 207 188 218 226 235 238 239 249 242 241 242 236 220 220 222 241 248 253 260 262 264 270 275 282 289 294 296 297 301 303 306 308 308 305 301 292 273 251 227 225 229 223 223 221 216
251 238 230 225 224 217 225 187 184 183 195 200 226 225 230 236 241 241 244 243 201 222 252 248 248 252 257 261 267 269 269 278 283 287 286 292 298 301 299 300 299 298 296 293 287 272 242 229 221 223 218 219 219 216
234 230 220 213 214 193 203 185 200 168 163 177 180 189 198 206 221 225 217 194 232 241 243 255 257 262 269 268 271 273 277 280 281 286 288 291 289 290 293 293 291 291 290 289 283 266 234 221 222 219 220 218 215 213
201 199 186 177 154 142 168 150 163 172 130 173 154 153 232 216 211 176 214 227 248 254 256 258 261 262 265 269 276 283 289 293 292 291 291 290 288 288 287 286 284 282 282 284 278 243 224 227 223 218 221 218 216 215
168 159 144 140 110 120 146 157 162 124 119 133 143 218 237 214 163 195 244 256 246 251 254 260 272 279 279 279 296 300 300 297 294 292 293 294 294 294 294 291 288 283 278 278 271 240 229 231 224 219 219 220 217 216
98 98 144 93 121 114 107 105 92 138 166 178 148 248 223 162 170 222 230 248 240 258 284 296 301 302 303 304 306 307 311 311 309 305 301 306 301 298 297 298 293 288 281 269 256 238 231 226 222 222 223 221 219 217
82 49 93 147 178 162 167 141 187 174 133 155 217 153 152 151 207 239 226 321 331 325 323 324 321 315 313 317 316 319 319 318 311 304 307 311 302 293 292 295 297 294 287 273 260 246 228 224 221 219 224 226 221 220
128 210 171 135 129 139 105 85 129 130 163 194 178 146 135 197 234 220 286 302 326 327 327 325 321 318 318 320 320 318 316 316 310 307 308 305 300 296 291 286 282 286 288 284 269 252 233 223 218 214 227 227 221 220
40 81 182 168 138 126 116 128 171 195 193 172 134 180 189 207 220 341 322 321 327 330 332 332 328 326 326 328 327 325 327 324 324 323 317 311 308 303 302 302 292 279 276 276 272 256 232 214 219 221 226 225 221 218
29 15 321 31 75 110 196 190 215 178 158 175 174 173 153 120 77 26 347 336 335 335 337 341 345 346 343 348 353 342 346 349 344 342 336 329 329 330 321 311 307 285 265 268 261 247 222 210 214 212 228 226 221 217
8 1 12 34 135 227 340 179 143 143 165 170 151 128 128 138 97 38 13 355 347 352 356 359 357 355 1 4 10 31 25 14 9 359 343 333 324 323 324 320 302 273 264 263 229 211 207 208 204 213 225 221 212 209
341 338 331 27 93 318 244 163 153 146 149 135 138 135 145 158 152 13 8 5 0 356 357 8 11 10 12 11 8 6 6 13 9 7 4 345 333 327 327 323 317 282 255 247 214 195 179 191 205 207 211 207 209 209
340 9 343 328 338 4 141 163 136 114 104 115 92 113 134 137 128 8 6 10 12 14 19 15 19 22 20 12 11 7 0 353 358 10 11 356 357 357 356 358 346 307 247 222 200 193 194 196 202 209 209 208 211 212
320 350 3 358 7 1 327 231 170 90 61 71 71 101 109 118 120 17 19 13 13 12 13 18 17 22 18 14 11 6 1 358 360 6 31 29 15 15 13 14 16 27 164 179 184 184 189 198 204 209 207 208 212 211
Height
1552 1554 1555 1556 1558 1557 1558 1558 1558 1558 1559 1557 1556 1557 1558 1558 1559 1560 1559 1560 1563 1560 1556 1557 1558 1557 1557 1560 1561 1565 1568 1567 1573 1579 1576 1567 1572 1555 1560 1549 1557 1555 1568 1571 1562 1554 1515 1462 1477 1471 1436 1429 1433 1432
1549 1550 1551 1552 1553 1553 1553 1552 1552 1553 1552 1552 1551 1551 1551 1553 1552 1553 1553 1555 1554 1554 1551 1549 1549 1548 1550 1551 1556 1558 1558 1557 1557 1562 1565 1563 1557 1561 1550 1523 1536 1536 1515 1512 1509 1488 1444 1446 1437 1437 1435 1435 1432 1432
1547 1547 1547 1547 1547 1547 1547 1548 1548 1548 1547 1545 1546 1545 1546 1547 1548 1548 1548 1549 1549 1548 1543 1542 1540 1541 1542 1544 1547 1550 1550 1551 1550 1549 1548 1546 1546 1537 1536 1526 1523 1512 1506 1505 1492 1435 1440 1441 1434 1430 1430 1427 1426 1425
1545 1544 1543 1543 1543 1543 1543 1542 1542 1542 1542 1541 1541 1541 1542 1542 1543 1542 1543 1545 1546 1545 1538 1530 1531 1532 1534 1536 1539 1541 1541 1542 1544 1546 1545 1540 1539 1525 1519 1507 1505 1501 1505 1491 1465 1450 1432 1428 1427 1426 1425 1421 1420 1420
1542 1542 1540 1539 1540 1540 1539 1538 1538 1537 1537 1537 1535 1536 1538 1539 1539 1538 1539 1539 1542 1545 1532 1527 1525 1527 1528 1529 1531 1532 1535 1539 1539 1543 1541 1538 1528 1525 1508 1508 1500 1490 1478 1477 1449 1436 1440 1423 1422 1422 1421 1418 1416 1414
1537 1537 1536 1535 1535 1537 1537 1536 1535 1534 1533 1533 1532 1531 1532 1533 1535 1536 1535 1536 1537 1537 1534 1526 1522 1519 1521 1523 1524 1528 1531 1533 1534 1532 1527 1520 1516 1519 1506 1487 1458 1457 1451 1455 1442 1435 1431 1427 1418 1416 1416 1413 1410 1409
1532 1533 1533 1532 1532 1534 1534 1533 1533 1532 1530 1529 1527 1528 1528 1528 1530 1533 1533 1531 1530 1533 1533 1525 1518 1518 1518 1520 1521 1523 1525 1527 1529 1527 1518 1513 1512 1516 1503 1475 1451 1448 1447 1444 1441 1436 1421 1420 1410 1410 1409 1408 1406 1405
1527 1529 1528 1530 1530 1530 1531 1531 1530 1530 1529 1527 1525 1524 1524 1525 1525 1527 1527 1528 1530 1532 1529 1521 1516 1519 1515 1516 1520 1520 1522 1524 1522 1519 1515 1511 1510 1509 1496 1457 1440 1439 1436 1433 1430 1429 1418 1408 1402 1400 1399 1402 1401 1402
1522 1522 1524 1525 1526 1527 1528 1529 1528 1528 1526 1526 1524 1523 1523 1522 1522 1522 1522 1523 1525 1531 1521 1515 1512 1513 1513 1514 1515 1517 1517 1521 1517 1513 1510 1507 1500 1491 1461 1442 1438 1433 1437 1428 1418 1410 1406 1403 1398 1396 1393 1394 1397 1399
1516 1518 1519 1520 1521 1523 1525 1525 1526 1525 1526 1527 1526 1525 1523 1522 1520 1522 1520 1521 1519 1517 1514 1508 1505 1508 1511 1516 1515 1518 1517 1518 1519 1505 1503 1498 1475 1455 1449 1439 1433 1433 1431 1426 1416 1401 1398 1394 1393 1393 1391 1392 1395 1398
1509 1512 1514 1516 1517 1519 1519 1522 1524 1525 1525 1525 1524 1523 1522 1521 1520 1520 1519 1518 1513 1510 1501 1498 1497 1499 1505 1509 1512 1512 1512 1513 1518 1500 1503 1490 1467 1445 1436 1433 1433 1431 1425 1418 1410 1402 1396 1393 1389 1387 1386 1387 1395 1396
1502 1505 1507 1508 1510 1513 1516 1517 1519 1520 1523 1526 1525 1520 1520 1519 1518 1520 1512 1511 1507 1500 1492 1491 1493 1496 1498 1501 1502 1506 1507 1510 1509 1498 1501 1481 1449 1431 1434 1429 1425 1420 1414 1410 1403 1394 1389 1384 1383 1383 1381 1384 1390 1393
1494 1497 1499 1502 1504 1505 1508 1511 1514 1514 1517 1522 1525 1522 1516 1515 1515 1508 1505 1493 1497 1486 1485 1487 1490 1492 1496 1499 1497 1500 1504 1501 1495 1496 1483 1451 1431 1430 1427 1423 1419 1414 1408 1403 1396 1390 1386 1383 1382 1379 1378 1381 1387 1389
1485 1488 1490 1494 1495 1498 1502 1507 1508 1506 1510 1515 1515 1517 1510 1502 1492 1481 1483 1482 1480 1480 1480 1484 1489 1492 1492 1494 1494 1497 1489 1490 1494 1488 1467 1436 1426 1425 1422 1417 1411 1406 1401 1397 1390 1385 1381 1381 1380 1380 1381 1382 1386 1386
1475 1479 1480 1481 1486 1489 1493 1498 1503 1500 1498 1502 1504 1501 1488 1475 1476 1476 1476 1477 1477 1479 1483 1486 1486 1487 1488 1489 1486 1484 1488 1484 1473 1460 1439 1423 1423 1421 1417 1412 1407 1402 1398 1393 1387 1384 1380 1381 1379 1379 1382 1384 1384 1385
1465 1468 1465 1471 1475 1480 1485 1490 1493 1490 1488 1487 1479 1476 1474 1474 1473 1474 1473 1474 1476 1476 1480 1482 1481 1483 1482 1477 1476 1473 1474 1469 1444 1434 1420 1420 1420 1417 1413 1409 1405 1400 1395 1390 1386 1382 1380 1381 1383 1380 1382 1385 1385 1385
1454 1450 1455 1459 1465 1470 1474 1479 1481 1479 1473 1465 1462 1462 1461 1463 1463 1465 1465 1466 1468 1473 1476 1478 1476 1471 1466 1463 1463 1459 1454 1433 1423 1420 1419 1416 1414 1414 1411 1406 1401 1396 1391 1387 1383 1380 1380 1379 1381 1382 1383 1385 1386 1386
1438 1438 1444 1448 1453 1458 1461 1463 1464 1460 1455 1452 1454 1452 1454 1457 1460 1459 1460 1459 1461 1463 1464 1463 1458 1461 1459 1454 1447 1439 1432 1427 1422 1419 1420 1413 1410 1407 1404 1397 1395 1390 1386 1382 1379 1377 1376 1375 1377 1379 1382 1384 1385 1385
1422 1426 1431 1437 1442 1445 1445 1443 1447 1440 1440 1443 1445 1447 1448 1448 1447 1449 1451 1451 1451 1450 1452 1451 1449 1445 1439 1435 1430 1425 1420 1419 1413 1409 1406 1403 1401 1397 1393 1392 1387 1383 1380 1376 1373 1371 1369 1370 1374 1377 1378 1380 1382 1384
1407 1412 1417 1423 1431 1430 1426 1425 1426 1428 1430 1431 1434 1436 1436 1438 1439 1439 1441 1442 1442 1445 1442 1437 1431 1426 1422 1419 1418 1414 1410 1407 1405 1401 1396 1394 1391 1388 1386 1383 1380 1377 1373 1369 1366 1365 1364 1365 1369 1373 1374 1377 1379 1380
1392 1394 1404 1411 1414 1414 1413 1411 1412 1414 1417 1421 1422 1426 1429 1429 1430 1430 1430 1431 1435 1431 1426 1419 1411 1410 1410 1409 1407 1404 1401 1399 1395 1393 1389 1383 1380 1379 1376 1375 1373 1369 1364 1361 1359 1357 1358 1361 1364 1368 1372 1373 1376 1379
1371 1381 1386 1394 1397 1394 1399 1401 1403 1405 1410 1412 1416 1418 1419 1420 1419 1419 1423 1425 1419 1407 1407 1406 1403 1404 1401 1398 1396 1393 1391 1388 1385 1382 1380 1378 1372 1368 1365 1364 1363 1360 1357 1354 1352 1351 1353 1357 1360 1365 1368 1370 1373 1376
1356 1369 1373 1380 1381 1386 1394 1394 1400 1402 1403 1409 1412 1415 1414 1412 1410 1415 1415 1408 1399 1397 1399 1399 1396 1392 1388 1387 1387 1385 1382 1379 1374 1371 1369 1366 1362 1359 1356 1354 1353 1351 1348 1347 1347 1347 1350 1353 1358 1362 1365 1367 1369 1373
1350 1360 1368 1369 1373 1386 1392 1393 1397 1396 1401 1405 1409 1411 1408 1405 1407 1409 1404 1393 1389 1389 1388 1386 1384 1382 1382 1381 1380 1378 1375 1370 1366 1362 1361 1357 1352 1349 1348 1346 1344 1342 1342 1341 1342 1343 1345 1349 1355 1358 1361 1363 1366 1369
1352 1365 1368 1372 1376 1384 1391 1392 1392 1394 1396 1400 1403 1402 1399 1401 1403 1404 1399 1385 1384 1383 1383 1382 1381 1381 1378 1374 1372 1369 1368 1364 1358 1352 1351 1350 1346 1342 1339 1338 1336 1335 1336 1336 1335 1336 1339 1343 1348 1353 1356 1359 1362 1365
1357 1362 1364 1368 1375 1375 1378 1385 1388 1389 1392 1397 1396 1395 1397 1398 1401 1392 1385 1381 1381 1381 1380 1379 1377 1375 1373 1370 1365 1361 1359 1356 1352 1346 1344 1343 1341 1338 1334 1332 1330 1329 1330 1330 1330 1331 1333 1338 1342 1347 1353 1356 1360 1363
1362 1364 1365 1365 1365 1369 1373 1374 1377 1380 1388 1387 1389 1393 1395 1395 1391 1383 1382 1381 1381 1380 1379 1377 1375 1372 1367 1363 1361 1358 1354 1350 1347 1343 1339 1337 1334 1332 1330 1327 1324 1324 1324 1324 1324 1324 1326 1331 1336 1342 1347 1352 1355 1358
1363 1365 1365 1364 1364 1363 1367 1373 1376 1376 1375 1375 1380 1387 1384 1378 1379 1382 1381 1380 1379 1378 1376 1374 1372 1369 1364 1360 1355 1350 1348 1346 1342 1339 1334 1332 1329 1327 1324 1322 1319 1317 1316 1317 1318 1318 1321 1326 1332 1337 1342 1346 1351 1355
1365 1365 1365 1364 1362 1363 1366 1369 1369 1369 1370 1371 1373 1374 1378 1379 1380 1380 1379 1379 1377 1375 1373 1370 1367 1364 1361 1357 1353 1349 1347 1344 1339 1334 1330 1326 1322 1321 1319 1315 1312 1310 1311 1312 1312 1313 1316 1321 1328 1335 1339 1343 1348 1353
1369 1367 1366 1365 1366 1367 1368 1368 1368 1368 1369 1369 1370 1373 1376 1378 1379 1380 1379 1377 1374 1372 1370 1368 1365 1362 1358 1354 1351 1349 1347 1344 1341 1337 1330 1324 1319 1315 1312 1309 1306 1306 1308 1309 1310 1312 1315 1319 1325 1330 1334 1340 1345 1348
1370 1368 1368 1367 1368 1368 1367 1368 1368 1368 1369 1370 1370 1372 1374 1377 1378 1378 1377 1375 1373 1371 1369 1366 1364 1361 1358 1355 1352 1348 1345 1343 1340 1336 1330 1324 1316 1312 1309 1307 1305 1306 1307 1308 1309 1312 1315 1319 1323 1328 1332 1336 1340 1344
1372 1371 1371 1369 1369 1369 1368 1368 1368 1369 1369 1370 1371 1373 1375 1376 1378 1378 1376 1374 1371 1369 1366 1365 1363 1361 1360 1358 1355 1352 1349 1345 1340 1334 1329 1323 1317 1314 1311 1309 1308 1308 1309 1310 1311 1313 1316 1319 1323 1327 1330 1335 1339 1343
1372 1371 1370 1370 1370 1369 1369 1370 1369 1370 1371 1371 1373 1373 1374 1376 1377 1378 1376 1374 1371 1369 1366 1365 1364 1363 1361 1358 1355 1352 1349 1345 1341 1338 1333 1328 1324 1319 1316 1314 1313 1312 1312 1313 1314 1316 1318 1322 1325 1329 1332 1336 1340 1344